Weather History for CWUW - November, 2012

Change the Weather History Date:

Thursday, November 29, 2012

  Actual Average Record
Temperature  
Mean Temperature -10 °F -  
Max Temperature -5 °F 0 °F 28 °F (2010)
Min Temperature -15 °F -6 °F -27 °F (1999)
Degree Days  
Heating Degree Days 75    
Moisture  
Dew Point -    
Average Humidity    
Maximum Humidity    
Minimum Humidity    
Precipitation  
Precipitation 0.00 in - - ()
Sea Level Pressure  
Sea Level Pressure 30.06 in    
Wind  
Wind Speed 9 mph ()    
Max Wind Speed 16 mph    
Max Gust Speed -    
Visibility 5.7 miles    
Events      
Averages and records for this station are not official NWS values.
T = Trace of Precipitation, MM = Missing Value Source: Averaged Metar Reports

Daily Weather History Graph

Daily Weather History Graph

Search for Another Location

Airport or City:

Trip Planner

Search our weather history database for the weather conditions in past years. The results will help you decide how hot, cold, wet, or windy it might be!

Date:

Astronomy

Nov. 29, 2012 Rise Set
Actual Time 10:37 AM EST 12:28 PM EST
Civil Twilight 8:32 AM EST 2:33 PM EST
Nautical Twilight 7:06 AM EST 3:58 PM EST
Astronomical Twilight 5:55 AM EST 5:09 PM EST
Moon 1:20 PM EST (11/29) 11:30 AM EST (11/29)
Length of Visible Light 6h 01m
Length of Day
1h 50m
Full, 99% of the Moon is Illuminated
Nov 29
Full
Dec 6
Last Quarter
Dec 13
New
Dec 20
First Quarter
Dec 28
Full

Hourly Weather History & Observations

Time (EST) Temp. Windchill Dew Point Humidity Pressure Visibility Wind Dir Wind Speed Gust Speed Precip Events Conditions
12:00 AM -9.4 °F -28.9 °F - N/A% 29.99 in 7.0 mi NW 11.5 mph - N/A   Overcast
12:45 AM -9.4 °F -27.9 °F - N/A% 29.77 in 7.0 mi NW 10.4 mph - N/A   Overcast
1:00 AM -9 °F - - % 29.99 in 7 mi WNW 12.7 mph - -   Overcast
1:21 AM -9.4 °F -31.4 °F - N/A% 29.77 in 9.0 mi WNW 15.0 mph - N/A   Overcast
2:00 AM -9.4 °F -28.9 °F - N/A% 30.01 in 9.0 mi WNW 11.5 mph - N/A   Clear
2:28 AM -9.4 °F -30.6 °F - N/A% 29.78 in 2.6 mi WNW 13.8 mph - N/A   Clear
2:53 AM -9.4 °F -30.6 °F - N/A% 29.79 in 1.1 mi WNW 13.8 mph - N/A   Clear
2:55 AM -9.4 °F -31.4 °F - N/A% 29.79 in 0.8 mi WNW 15.0 mph - N/A   Clear
2:56 AM -9.4 °F -31.4 °F - N/A% 29.79 in 0.6 mi WNW 15.0 mph - N/A   Clear
3:00 AM -9.4 °F -30.6 °F - N/A% 30.01 in 0.5 mi WNW 13.8 mph - N/A   Clear
3:15 AM -9.4 °F -31.4 °F - N/A% 29.79 in 0.4 mi WNW 15.0 mph - N/A   Clear
3:43 AM -9.4 °F -31.4 °F - N/A% 29.79 in 0.1 mi WNW 15.0 mph - N/A   Clear
4:00 AM -10 °F - - % 30.02 in 0 mi WNW 15.0 mph - -  
4:00 AM -9.4 °F -30.6 °F - N/A% 30.02 in 0.1 mi NW 13.8 mph - N/A   Clear
5:00 AM -9.4 °F -32.1 °F - N/A% 30.04 in 0.1 mi NW 16.1 mph - N/A   Clear
6:00 AM -11.2 °F -32.9 °F - N/A% 30.05 in 0.1 mi NW 13.8 mph - N/A   Clear
7:00 AM -12 °F - - % 30.07 in 0 mi WNW 13.8 mph - -  
7:00 AM -11.2 °F -33.7 °F - N/A% 30.07 in 0.1 mi NW 15.0 mph - N/A   Clear
8:00 AM -13.0 °F -33.4 °F - N/A% 30.09 in 0.1 mi NW 11.5 mph - N/A   Clear
9:00 AM -13.0 °F -30.0 °F - N/A% 30.11 in 0.1 mi NW 8.1 mph - N/A   Clear
9:06 AM -13.0 °F -27.0 °F - N/A% 29.88 in 0.1 mi NW 5.8 mph - N/A   Clear
10:00 AM -15 °F - - % 30.13 in 0 mi NW 5.8 mph - -  
10:00 AM -14.8 °F -30.8 °F - N/A% 30.13 in 0.1 mi NW 6.9 mph - N/A   Clear
10:12 AM -13.0 °F -27.0 °F - N/A% 29.90 in 0.6 mi NW 5.8 mph - N/A   Clear
10:14 AM -13.0 °F -27.0 °F - N/A% 29.90 in 2.1 mi NW 5.8 mph - N/A   Clear
10:24 AM -13.0 °F - - N/A% 29.90 in 9.0 mi NNW 2.3 mph - N/A   Clear
11:00 AM -11.2 °F -20.6 °F - N/A% 30.15 in 8.0 mi NNW 3.5 mph - N/A   Clear
12:00 PM -9.4 °F -22.7 °F - N/A% 30.15 in 9.0 mi NW 5.8 mph - N/A   Clear
1:00 PM -10 °F - - % 30.19 in 9 mi Calm Calm - -  
1:00 PM -9.4 °F - - N/A% 30.19 in 9.0 mi Calm Calm - N/A   Clear
1:13 PM -9.4 °F -18.6 °F - N/A% 29.96 in 9.0 mi NNW 3.5 mph - N/A   Clear
1:54 PM -9.4 °F -18.6 °F - N/A% 29.97 in 9.0 mi NNW 3.5 mph - N/A   Clear
2:00 PM -9.4 °F -20.9 °F - N/A% 30.21 in 9.0 mi NW 4.6 mph - N/A   Clear
3:00 PM -7.6 °F -22.1 °F - N/A% 30.22 in 9.0 mi NNW 6.9 mph - N/A   Clear
3:12 PM -7.6 °F -20.6 °F - N/A% 30.00 in 9.0 mi NNW 5.8 mph - N/A   Clear
3:41 PM -5.8 °F -16.7 °F - N/A% 30.01 in 9.0 mi NNW 4.6 mph - N/A   Clear
4:00 PM -7 °F - - % 30.24 in 9 mi NNW 3.5 mph - -  
4:00 PM -5.8 °F -16.7 °F - N/A% 30.24 in 9.0 mi NW 4.6 mph - N/A   Clear
5:00 PM -5.8 °F -14.5 °F - N/A% 30.26 in 9.0 mi NW 3.5 mph - N/A   Clear
6:00 PM -5.8 °F - - N/A% 30.28 in 9.0 mi WNW 2.3 mph - N/A   Clear
6:18 PM -7.6 °F -16.5 °F - N/A% 30.05 in 9.0 mi West 3.5 mph - N/A   Clear
6:44 PM -5.8 °F -16.7 °F - N/A% 30.05 in 9.0 mi WNW 4.6 mph - N/A   Clear
7:00 PM -7 °F - - % 30.28 in 9 mi West 3.5 mph - -  
7:00 PM -5.8 °F -14.5 °F - N/A% 30.28 in 9.0 mi WNW 3.5 mph - N/A   Clear
7:05 PM -5.8 °F -16.7 °F - N/A% 30.05 in 9.0 mi WNW 4.6 mph - N/A   Clear
7:28 PM -5.8 °F -16.7 °F - N/A% 30.05 in 9.0 mi NW 4.6 mph - N/A   Clear
7:49 PM -5.8 °F -16.7 °F - N/A% 30.05 in 9.0 mi NW 4.6 mph - N/A   Clear
8:00 PM -5.8 °F -16.7 °F - N/A% 30.28 in 9.0 mi NW 4.6 mph - N/A   Clear
8:24 PM -5.8 °F -16.7 °F - N/A% 30.05 in 9.0 mi NNW 4.6 mph - N/A   Clear
9:00 PM -5.8 °F -14.5 °F - N/A% 30.28 in 9.0 mi NW 3.5 mph - N/A   Clear
10:00 PM -6 °F - - % 30.30 in 9 mi SSW 5.8 mph - -  
10:00 PM -5.8 °F -18.4 °F - N/A% 30.30 in 9.0 mi SSW 5.8 mph - N/A   Clear
11:00 PM -5.8 °F -18.4 °F - N/A% 30.29 in 9.0 mi West 5.8 mph - N/A   Clear
11:57 PM -5.8 °F -16.7 °F - N/A% 30.07 in 9.0 mi West 4.6 mph - N/A   Clear